Simultaneous Nadir Overpasses (SNOs) Predictions

Prediction of SNOs between AQUA and METOP-A Satellite Orbit:

Table of predicted SNOs for the next 14.0 days since TLE Epoch: 1/31/2020
Index Date (AQUA) Time (AQUA) Lat,Lon (AQUA) SZA (AQUA ) Date (METOP-A) Time (METOP-A) Lat,Lon (METOP-A) SZA (METOP-A ) Distance(km) Time Diff (sec)
1 02/02/2020 01:37:08 -75.82, -35.05 86.85 02/02/2020 01:35:54 -75.77, -35.20 86.87 6.78 74
2 02/02/2020 02:26:36 75.87, 132.45 93.20 02/02/2020 02:26:32 75.86, 132.41 93.20 1.13 4
3 02/02/2020 03:16:03 -75.91, -60.05 86.76 02/02/2020 03:17:12 -75.94, -60.01 86.75 3.20 69
4 02/04/2020 21:11:24 -75.83, 31.36 87.66 02/04/2020 21:10:15 -75.85, 31.40 87.62 2.15 69
5 02/04/2020 22:00:52 75.88,-161.17 92.40 02/04/2020 22:00:54 75.89,-161.14 92.40 0.81 2
6 02/04/2020 22:50:21 -76.02, 6.06 87.46 02/04/2020 22:51:33 -76.01, 6.60 87.51 14.56 72
7 02/07/2020 16:45:39 -75.85, 97.75 88.49 02/07/2020 16:44:37 -75.83, 97.69 88.49 2.57 62
8 02/07/2020 17:35:07 75.91, -94.80 91.57 02/07/2020 17:35:15 75.91, -94.70 91.57 2.74 8
9 02/07/2020 18:24:41 -76.28, 71.68 88.02 02/07/2020 18:25:49 -76.27, 73.82 88.16 56.60 68
10 02/10/2020 12:19:55 -75.87, 164.13 89.36 02/10/2020 12:18:59 -75.85, 164.13 89.36 1.40 56
11 02/10/2020 13:09:22 75.89, -28.29 90.65 02/10/2020 13:09:38 75.89, -28.41 90.66 3.41 16
12 02/10/2020 13:59:02 -76.54, 137.25 88.60 02/10/2020 14:00:06 -76.53, 141.08 88.85 99.04 64
13 02/13/2020 07:54:11 -75.89,-129.51 90.26 02/13/2020 07:53:21 -75.88,-129.43 90.26 2.72 50
14 02/13/2020 08:43:38 75.92, 38.05 89.76 02/13/2020 08:44:00 75.92, 38.02 89.76 0.82 22




NCC Satellite Simultaneous Nadir Overpasses (SNOs) Prediction Service
